Weather in Khoznikovo

Russia / Ivanovo Oblast     56°48′14″N   41°07′07″E
temp.,
°C
wind,
m/s
gust,
m/s
humid.,
%
clouds,
%
prec.,
mm/h
press.,
hPa
HPBL,
m
3 march, wed
wed300:00−4nw4129057 0.1 1007574
03:00−6nw5129042 0.1 1009538
06:00−8nw41393100 0.0 1010467
09:00−6nw51189100 0.1 1011635
12:00−3nw5108083 0.0 1011941
15:00−2wnw488689 0.1 1010833
18:00−2w41095100 0.3 1008666
21:00−2w41195100 0.5 1006740
4 march, thu
thu400:00−2wsw51193100 0.1 1003784
03:00−2wsw61294100 0.6 1000879
06:000w61297100 0.9 996865
09:000wnw61284100 2.3 9961468
12:00−1wnw6107980 0.0 9971069
15:00−2wnw598390 0.1 9981001
18:00−5wnw3890100 0.1 999273
21:00−7nw389698 0.1 1001236
5 march, fri
fri500:00−9nnw239687 0.0 100252
03:00−12n239556 0.0 100329
06:00−13nnw12960 0.0 100520
09:00−10wnw12920 0.0 1006136
12:00−5wnw138167 0.0 1006470
15:00−4wsw238083 0.0 1008760
18:00−8sw2294100 0.1 100827
21:00−9w259698 0.1 1010117
6 march, sat
sat600:00−11nw259568 0.0 1011104
03:00−13nw259546 0.0 1012128
06:00−15nw279745 0.0 1013143
09:00−14nnw369365 0.0 1014284
12:00−11nw357974 0.0 1015746
15:00−9wnw357777 0.0 1015977
18:00−12w2493100 0.1 101489
21:00−13wsw379592 0.1 1014170
7 march, sun
sun700:00−15sw389334 0.0 1012151
03:00−13ssw4119241 0.0 1008322
06:00−10ssw61493100 0.4 1004810
09:00−7ssw71492100 1.6 9981021
12:00−4sw71492100 1.8 9941157
15:00−2w61195100 3.4 992936
18:00−7nnw1185100 0.8 99121
21:00−10wsw1288100 0.8 99221